User: anonymous   Login
Location: Newark
(46.7636°N, 1.8358°W)
Time: 14:13:50
(UTC+00:00)
Language:

LightSail 2 - Orbit

View from above orbital plane
View from above orbital plane
View from above satellite
View from above satellite

Ground track
Ground track

The orbit data is extracted from the following two-line orbital elements,

1 44420U 19036AC  19289.04532030  .00005432  00000-0  12329-2 0  9992
2 44420  24.0038 215.5632 0010878 314.6709  45.2903 14.53315676 14549
Epoch (UTC): 16 October 2019 01:05:15
Eccentricity: 0.0010878
inclination: 24.0038°
perigee height: 707 km
apogee height: 722 km
right ascension of ascending node: 215.5632°
argument of perigee: 314.6709°
revolutions per day: 14.53315676
mean anomaly at epoch: 45.2903°
orbit number at epoch: 1454

The dashed part of the orbit path shows where the satellite is in the earth's shadow,  

DLR